Location: Newark
(45.9456°N, 15.4064°E)
Time: 14:38:47
(UTC+00:00)

Vanguard 3 - Pass Details

Date: 29 January 2020
Orbit: 508 x 3263 km, 33.3° (Epoch: 28 February)

Event Time Altitude Azimuth Distance (km) Brightness Sun altitude
Rises 19:46:39 0° 273° (W) 7,234 12.8 -39.5°
Reaches altitude 10° 19:52:03 10° 267° (W) 6,161 12.2 -40.4°
Maximum altitude 20:08:45 40° 207° (SSW) 3,499 10.2 -43.1°
Enters shadow 20:11:02 39° 190° (S) 3,416 10.0 -43.5°
Drops below altitude 10° 20:20:25 10° 144° (SE) 4,356 - -45.0°
Sets 20:23:31 0° 136° (SE) 5,011 - -45.5°
